Погода в Худжанде

Таджикистан     40°17′00″N   69°37′26″E
темп.,
°C
ветер,
м/с
пор.,
м/с
влажн.,
%
обл.,
%
осадки,
мм/ч
давл.,
гПа
погр.,
м
12 августа, пт
пт1223:00+23зюз33280 0.0 100925
02:00+21з33320 0.0 100923
05:00+20зсз33340 0.0 101020
08:00+24з34270 0.0 1011325
11:00+30зсз33190 0.0 10091118
14:00+34зсз44150 0.0 10061814
17:00+35зсз55130 0.0 10052332
20:00+28зюз44200 0.0 100536
13 августа, сб
сб1323:00+25зюз33250 0.0 100518
02:00+22зсз33270 0.0 100621
05:00+21зсз33320 0.0 100724
08:00+25з34260 0.0 1008392
11:00+32зсз32180 0.0 1006929
14:00+36зсз33120 0.0 10041758
17:00+37зсз44120 0.0 10022250
20:00+30зюз33190 0.0 100223
14 августа, вс
вс1423:00+26зсз22240 0.0 100213
02:00+25з33250 0.0 100217
05:00+22зсз33250 0.0 100414
08:00+27з34260 0.0 1005391
11:00+33зсз44170 0.0 1003903
14:00+38зсз44120 0.0 10011693
17:00+39зсз45100 0.0 10002593
20:00+30сз23170 0.0 100114
15 августа, пн
пн1523:00+28зюз33200 0.0 100131
02:00+26з33210 0.0 100118
05:00+24зсз22240 0.0 100213
08:00+31з33170 0.0 1003274
11:00+37зсз44120 0.0 10021227
14:00+41сз65100 0.0 10002640
17:00+40зсз66100 0.0 9993521
20:00+31ссз33160 0.0 100132
16 августа, вт
вт1623:00+29зюз44190 0.0 100244
02:00+26з22230 0.0 100213
05:00+25зсз33240 0.0 100420
08:00+29з45190 0.0 1005390
11:00+35зсз56140 0.0 10041174
14:00+39зсз77110 0.0 10022834
17:00+38зсз88110 0.0 10023322
20:00+31сз512150 0.0 1004234